Forside
METAR-TAF:

METAR-TAF

Lufthavne :

Rice Lake Regional Airport (Carl's Field)

Rice Lake, Wisconsin, USA

Breddekreds: 45-25-05N, længdekreds: 091-46-25W, højde: 337 m

Aktuelle vejr

Denne rapport blev lavet for 27 minutter siden, kl. 15:35 UTC
Vind stille
Temperatur 21°C
Fugtighed 78%
Tryk 1020 hPa
Sigt: 11.3 km
skyfri

METAR: KRPD 031535Z AUTO 00000KT 7SM CLR 21/17 A3013 RMK AO2 T02060166

Tid: 11:02 (16:02 UTC)


TAF: fraværende

Vejrobservationer og prognoser fra mere end 4000 lufthavne (METAR og TAF).

De gule og røde prikker repræsenterer de meteorologiske stationer.

Flyt musen over at se navnet på stationen.

Så klik over at se vejr observationer og prognoser.

At skifte det kort: Klik på de grønne knapper med et sort kors for at zoome ind; på den grønne knap med en bindestreg for at zoome ud; eller på de grønne pile for tilstødende kort.


METAR-TAF: